| time (UTC) | temp F | wind direction | speed MPH | gust MPH | rain 1hr in | rain 24hr in | rain mn in | humidity % | barometer mb |
| 20260507145027 | 57 | 23 | 2.0 | 7.0 | 0.00 | 0.13 | 0.57 | 99 | 998.5 |
| 20260507144517 | 57 | 338 | 1.0 | 13.0 | 0.00 | 0.13 | 0.57 | 99 | 998.6 |
| 20260507144003 | 57 | 293 | 7.0 | 13.0 | 0.00 | 0.13 | 0.57 | 99 | 998.6 |
| 20260507143459 | 57 | 338 | 4.0 | 11.0 | 0.00 | 0.13 | 0.57 | 99 | 998.4 |
| 20260507142941 | 58 | 315 | 5.0 | 11.0 | 0.00 | 0.13 | 0.57 | 99 | 998.1 |
| 20260507142431 | 58 | 23 | 2.0 | 8.0 | 0.00 | 0.13 | 0.57 | 99 | 998.6 |
| 20260507141407 | 57 | 338 | 3.0 | 11.0 | 0.00 | 0.13 | 0.57 | 99 | 999.1 |
| 20260507140858 | 57 | 0 | 4.0 | 11.0 | 0.00 | 0.13 | 0.57 | 99 | 999.0 |
| 20260507140358 | 57 | 315 | 3.0 | 7.0 | 0.00 | 0.13 | 0.57 | 99 | 999.5 |
| 20260507135327 | 57 | 90 | 0.0 | 7.0 | 0.00 | 0.13 | 0.57 | 99 | 1000.5 |
| 20260507134817 | 57 | 315 | 0.0 | 7.0 | 0.00 | 0.13 | 0.57 | 99 | 999.6 |
| 20260507134308 | 57 | 23 | 2.0 | 7.0 | 0.00 | 0.13 | 0.57 | 99 | 999.6 |
| 20260507133757 | 57 | 338 | 2.0 | 7.0 | 0.00 | 0.13 | 0.57 | 99 | 999.2 |
| 20260507133301 | 57 | 0 | 4.0 | 6.0 | 0.00 | 0.13 | 0.57 | 99 | 999.0 |
| 20260507132238 | 57 | 315 | 0.0 | 11.0 | 0.00 | 0.13 | 0.57 | 99 | 999.7 |
| 20260507131725 | 57 | 338 | 3.0 | 11.0 | 0.00 | 0.13 | 0.57 | 99 | 999.6 |
| 20260507131215 | 57 | 0 | 3.0 | 9.0 | 0.00 | 0.13 | 0.57 | 99 | 998.8 |
| 20260507130702 | 58 | 0 | 2.0 | 9.0 | 0.00 | 0.13 | 0.57 | 99 | 999.1 |
| 20260507130152 | 58 | 338 | 3.0 | 9.0 | 0.01 | 0.13 | 0.57 | 99 | 999.4 |
| 20260507125638 | 57 | 45 | 2.0 | 8.0 | 0.01 | 0.13 | 0.57 | 99 | 999.4 |
| 20260507125126 | 57 | 338 | 3.0 | 7.0 | 0.01 | 0.13 | 0.57 | 99 | 999.5 |
| 20260507124615 | 57 | 0 | 1.0 | 8.0 | 0.01 | 0.13 | 0.57 | 99 | 999.0 |
| 20260507123045 | 57 | 23 | 4.0 | 8.0 | 0.01 | 0.13 | 0.57 | 99 | 998.6 |
| 20260507122027 | 57 | 0 | 4.0 | 11.0 | 0.01 | 0.13 | 0.57 | 99 | 999.2 |
| 20260507121522 | 57 | 23 | 4.0 | 11.0 | 0.01 | 0.13 | 0.57 | 99 | 999.3 |
| 20260507121009 | 57 | 338 | 2.0 | 9.0 | 0.02 | 0.13 | 0.57 | 99 | 999.5 |
| 20260507120000 | 58 | 0 | 1.0 | 8.0 | 0.01 | 0.12 | 0.56 | 99 | 999.6 |
| 20260507115447 | 58 | 23 | 2.0 | 8.0 | 0.01 | 0.12 | 0.56 | 99 | 999.6 |
| 20260507114937 | 57 | 23 | 3.0 | 9.0 | 0.01 | 0.12 | 0.56 | 99 | 999.2 |
| 20260507113909 | 57 | 0 | 4.0 | 13.0 | 0.01 | 0.12 | 0.56 | 99 | 998.5 |
| 20260507113400 | 57 | 23 | 4.0 | 11.0 | 0.01 | 0.12 | 0.56 | 99 | 998.7 |
| 20260507112846 | 57 | 315 | 4.0 | 11.0 | 0.01 | 0.12 | 0.56 | 99 | 998.6 |
| 20260507112336 | 58 | 23 | 6.0 | 15.0 | 0.01 | 0.12 | 0.56 | 99 | 998.5 |
| 20260507111825 | 58 | 23 | 8.0 | 15.0 | 0.02 | 0.12 | 0.56 | 99 | 998.6 |
| 20260507111314 | 58 | 338 | 4.0 | 11.0 | 0.01 | 0.11 | 0.54 | 99 | 998.5 |
| 20260507110803 | 58 | 23 | 5.0 | 11.0 | 0.01 | 0.11 | 0.54 | 99 | 998.6 |
| 20260507110253 | 58 | 0 | 4.0 | 11.0 | 0.01 | 0.11 | 0.54 | 99 | 998.7 |
| 20260507105743 | 58 | 0 | 4.0 | 9.0 | 0.02 | 0.11 | 0.54 | 99 | 998.2 |
| 20260507105233 | 57 | 338 | 2.0 | 8.0 | 0.02 | 0.11 | 0.54 | 99 | 998.1 |
| 20260507104724 | 57 | 0 | 4.0 | 9.0 | 0.02 | 0.11 | 0.54 | 99 | 998.1 |
| 20260507104213 | 57 | 0 | 6.0 | 11.0 | 0.02 | 0.11 | 0.54 | 99 | 998.6 |
| 20260507103703 | 57 | 45 | 4.0 | 11.0 | 0.04 | 0.11 | 0.54 | 99 | 998.4 |
| 20260507103153 | 57 | 338 | 4.0 | 11.0 | 0.04 | 0.11 | 0.54 | 99 | 997.9 |
| 20260507102657 | 57 | 338 | 4.0 | 11.0 | 0.05 | 0.11 | 0.54 | 99 | 997.9 |
| 20260507102143 | 57 | 0 | 3.0 | 9.0 | 0.05 | 0.11 | 0.54 | 99 | 998.2 |
| 20260507101121 | 57 | 23 | 3.0 | 13.0 | 0.05 | 0.09 | 0.53 | 99 | 998.9 |
| 20260507100608 | 57 | 0 | 4.0 | 13.0 | 0.06 | 0.09 | 0.53 | 99 | 998.9 |
| 20260507100059 | 57 | 0 | 6.0 | 11.0 | 0.06 | 0.09 | 0.53 | 99 | 998.9 |
| 20260507095544 | 57 | 23 | 2.0 | 11.0 | 0.06 | 0.08 | 0.52 | 99 | 999.3 |
| 20260507095034 | 57 | 68 | 3.0 | 11.0 | 0.07 | 0.08 | 0.52 | 99 | 999.4 |
| 20260507094518 | 57 | 45 | 2.0 | 11.0 | 0.08 | 0.08 | 0.52 | 99 | 999.4 |
| 20260507093501 | 57 | 293 | 6.0 | 14.0 | 0.07 | 0.07 | 0.51 | 99 | 998.9 |
| 20260507092951 | 57 | 45 | 4.0 | 14.0 | 0.07 | 0.07 | 0.51 | 99 | 999.3 |
| 20260507092442 | 57 | 23 | 6.0 | 14.0 | 0.06 | 0.06 | 0.50 | 99 | 999.3 |
| 20260507091931 | 57 | 23 | 5.0 | 14.0 | 0.06 | 0.06 | 0.50 | 99 | 999.7 |
| 20260507090400 | 57 | 315 | 2.0 | 9.0 | 0.04 | 0.04 | 0.47 | 99 | 1000.0 |
| 20260507084842 | 57 | 0 | 3.0 | 6.0 | 0.01 | 0.01 | 0.45 | 99 | 1000.2 |
| 20260507084328 | 57 | 0 | 1.0 | 7.0 | 0.00 | 0.00 | 0.44 | 99 | 1000.3 |
| 20260507083819 | 57 | 23 | 0.0 | 7.0 | 0.00 | 0.00 | 0.44 | 99 | 1000.2 |
| 20260507083306 | 57 | 45 | 0.0 | 6.0 | 0.00 | 0.00 | 0.44 | 99 | 1000.1 |
| 20260507082756 | 57 | 23 | 2.0 | 11.0 | 0.00 | 0.00 | 0.44 | 99 | 1000.0 |
| 20260507082242 | 57 | 45 | 2.0 | 11.0 | 0.00 | 0.00 | 0.44 | 99 | 999.8 |
| 20260507081733 | 57 | 338 | 3.0 | 8.0 | 0.00 | 0.00 | 0.44 | 99 | 999.9 |
| 20260507081219 | 57 | 0 | 3.0 | 7.0 | 0.00 | 0.00 | 0.44 | 99 | 999.8 |
| 20260507080159 | 57 | 23 | 1.0 | 6.0 | 0.00 | 0.00 | 0.44 | 99 | 999.4 |
| 20260507075649 | 57 | 0 | 2.0 | 6.0 | 0.00 | 0.00 | 0.44 | 99 | 999.1 |
| 20260507075139 | 57 | 315 | 0.0 | 4.0 | 0.00 | 0.00 | 0.44 | 99 | 998.7 |
| 20260507074119 | 57 | 68 | 0.0 | 0.0 | 0.00 | 0.00 | 0.44 | 99 | 998.6 |
| 20260507072549 | 57 | 315 | 0.0 | 0.0 | 0.17 | 0.66 | 0.41 | 99 | 998.2 |
| 20260507072036 | 57 | 338 | 0.0 | 0.0 | 0.17 | 0.65 | 0.40 | 99 | 998.6 |
| 20260507071524 | 57 | 0 | 0.0 | 2.0 | 0.15 | 0.63 | 0.39 | 99 | 998.2 |
| 20260507065951 | 57 | 338 | 2.0 | 4.0 | 0.14 | 0.59 | 0.34 | 99 | 999.0 |
| 20260507065441 | 57 | 0 | 0.0 | 0.0 | 0.13 | 0.57 | 0.32 | 99 | 998.8 |
| 20260507064931 | 57 | 45 | 0.0 | 0.0 | 0.13 | 0.56 | 0.31 | 99 | 999.0 |
| 20260507064421 | 57 | 0 | 0.0 | 0.0 | 0.13 | 0.54 | 0.30 | 99 | 999.1 |
| 20260507063911 | 57 | 338 | 0.0 | 0.0 | 0.13 | 0.53 | 0.28 | 99 | 999.4 |
| 20260507063401 | 58 | 315 | 0.0 | 0.0 | 0.12 | 0.52 | 0.27 | 99 | 999.4 |
| 20260507062850 | 58 | 23 | 0.0 | 0.0 | 0.11 | 0.51 | 0.26 | 99 | 999.5 |
| 20260507061831 | 58 | 338 | 0.0 | 0.0 | 0.11 | 0.48 | 0.24 | 99 | 999.2 |
| 20260507061333 | 58 | 315 | 0.0 | 0.0 | 0.11 | 0.47 | 0.22 | 99 | 999.2 |
| 20260507060820 | 58 | 338 | 0.0 | 0.0 | 0.11 | 0.46 | 0.21 | 99 | 999.1 |
| 20260507060310 | 58 | 338 | 0.0 | 0.0 | 0.11 | 0.46 | 0.21 | 99 | 999.0 |
| 20260507055245 | 58 | 315 | 0.0 | 0.0 | 0.11 | 0.44 | 0.19 | 99 | 998.5 |
| 20260507054735 | 58 | 315 | 0.0 | 0.0 | 0.08 | 0.41 | 0.18 | 99 | 998.7 |
| 20260507054222 | 58 | 338 | 0.0 | 0.0 | 0.08 | 0.41 | 0.17 | 99 | 998.6 |
| 20260507053712 | 58 | 315 | 0.0 | 0.0 | 0.07 | 0.40 | 0.15 | 99 | 998.4 |
| 20260507053159 | 58 | 338 | 0.0 | 4.0 | 0.08 | 0.40 | 0.15 | 99 | 998.4 |
| 20260507052649 | 58 | 0 | 0.0 | 4.0 | 0.08 | 0.39 | 0.14 | 99 | 998.7 |
| 20260507052138 | 58 | 68 | 1.0 | 8.0 | 0.07 | 0.38 | 0.13 | 99 | 998.6 |
| 20260507051118 | 58 | 338 | 2.0 | 4.0 | 0.07 | 0.37 | 0.12 | 99 | 998.9 |
| 20260507050608 | 58 | 23 | 0.0 | 0.0 | 0.07 | 0.35 | 0.11 | 99 | 999.0 |
| 20260507045547 | 58 | 0 | 0.0 | 6.0 | 0.07 | 0.34 | 0.09 | 99 | 999.2 |
| 20260507045037 | 58 | 45 | 0.0 | 6.0 | 0.06 | 0.33 | 0.08 | 99 | 999.4 |
| 20260507044032 | 58 | 45 | 1.0 | 7.0 | 0.06 | 0.33 | 0.08 | 99 | 998.2 |
| 20260507043519 | 58 | 315 | 0.0 | 7.0 | 0.05 | 0.32 | 0.07 | 99 | 998.2 |
| 20260507043006 | 58 | 45 | 2.0 | 4.0 | 0.06 | 0.32 | 0.07 | 99 | 998.4 |
| 20260507042458 | 59 | 45 | 0.0 | 2.0 | 0.05 | 0.31 | 0.06 | 99 | 998.8 |
| 20260507041942 | 59 | 23 | 0.0 | 2.0 | 0.05 | 0.31 | 0.06 | 99 | 998.4 |
| 20260507041433 | 59 | 23 | 0.0 | 0.0 | 0.05 | 0.30 | 0.05 | 99 | 998.4 |
| 20260507040920 | 59 | 338 | 0.0 | 0.0 | 0.05 | 0.30 | 0.05 | 99 | 998.2 |
| 20260507040406 | 59 | 23 | 0.0 | 4.0 | 0.04 | 0.28 | 0.04 | 99 | 998.8 |
| 20260507035347 | 59 | 23 | 0.0 | 4.0 | 0.04 | 0.27 | 0.02 | 99 | 998.9 |
| 20260507034837 | 59 | 23 | 0.0 | 4.0 | 0.04 | 0.27 | 0.02 | 99 | 998.5 |
| 20260507034327 | 59 | 338 | 0.0 | 4.0 | 0.04 | 0.27 | 0.02 | 99 | 998.0 |
| 20260507033816 | 59 | 315 | 0.0 | 4.0 | 0.05 | 0.27 | 0.02 | 99 | 997.9 |
| 20260507033306 | 59 | 315 | 0.0 | 4.0 | 0.05 | 0.27 | 0.02 | 99 | 998.0 |
| 20260507032757 | 59 | 23 | 0.0 | 2.0 | 0.04 | 0.26 | 0.01 | 99 | 998.1 |
| 20260507032246 | 59 | 23 | 0.0 | 4.0 | 0.04 | 0.26 | 0.01 | 99 | 998.0 |
| 20260507031735 | 59 | 338 | 0.0 | 4.0 | 0.05 | 0.26 | 0.01 | 99 | 997.6 |
| 20260507030727 | 59 | 0 | 0.0 | 0.0 | 0.04 | 0.25 | 0.00 | 99 | 997.9 |
| 20260507030216 | 59 | 90 | 0.0 | 0.0 | 0.04 | 0.25 | 0.00 | 99 | 998.2 |
| 20260507025703 | 59 | 68 | 0.0 | 0.0 | 0.02 | 0.24 | 0.24 | 99 | 998.1 |
| 20260507025154 | 59 | 113 | 0.0 | 0.0 | 0.02 | 0.24 | 0.24 | 99 | 998.5 |
| 20260507024640 | 59 | 270 | 0.0 | 0.0 | 0.04 | 0.24 | 0.24 | 99 | 999.2 |
| 20260507024129 | 59 | 338 | 0.0 | 0.0 | 0.02 | 0.22 | 0.24 | 99 | 999.7 |
| 20260507023617 | 59 | 68 | 0.0 | 0.0 | 0.02 | 0.22 | 0.22 | 99 | 1000.0 |
| 20260507023105 | 59 | 315 | 0.0 | 0.0 | 0.02 | 0.22 | 0.22 | 99 | 999.7 |
| 20260507022555 | 59 | 68 | 0.0 | 4.0 | 0.02 | 0.22 | 0.22 | 99 | 1000.6 |
| 20260507022045 | 60 | 248 | 0.0 | 4.0 | 0.01 | 0.21 | 0.22 | 99 | 1000.6 |
| 20260507021542 | 60 | 23 | 1.0 | 4.0 | 0.01 | 0.21 | 0.21 | 99 | 1001.0 |
| 20260507021024 | 60 | 338 | 0.0 | 0.0 | 0.01 | 0.21 | 0.21 | 99 | 1001.5 |
| 20260507020515 | 60 | 338 | 0.0 | 6.0 | 0.01 | 0.21 | 0.21 | 99 | 1002.0 |
| 20260507015454 | 60 | 248 | 0.0 | 4.0 | 0.01 | 0.21 | 0.21 | 99 | 1002.7 |
| 20260507014944 | 60 | 90 | 0.0 | 6.0 | 0.00 | 0.20 | 0.20 | 99 | 1003.1 |
| 20260507014434 | 60 | 293 | 0.0 | 6.0 | 0.00 | 0.20 | 0.20 | 99 | 1002.5 |
| 20260507013937 | 60 | 0 | 3.0 | 6.0 | 0.00 | 0.20 | 0.20 | 99 | 1002.6 |
| 20260507012914 | 60 | 90 | 3.0 | 13.0 | 0.00 | 0.20 | 0.20 | 99 | 1000.4 |
| 20260507012401 | 60 | 293 | 2.0 | 15.0 | 0.00 | 0.20 | 0.20 | 99 | 999.4 |
| 20260507011849 | 60 | 203 | 5.0 | 15.0 | 0.00 | 0.20 | 0.20 | 99 | 999.2 |
| 20260507011339 | 60 | 180 | 4.0 | 13.0 | 0.00 | 0.20 | 0.20 | 99 | 999.3 |
| 20260507010316 | 59 | 270 | 4.0 | 13.0 | 0.01 | 0.20 | 0.20 | 99 | 999.7 |
| 20260507005804 | 59 | 338 | 2.0 | 11.0 | 0.01 | 0.20 | 0.20 | 99 | 999.5 |
| 20260507005253 | 59 | 225 | 3.0 | 13.0 | 0.01 | 0.20 | 0.20 | 99 | 999.5 |
| 20260507004233 | 59 | 248 | 5.0 | 16.0 | 0.01 | 0.20 | 0.20 | 99 | 999.0 |
| 20260507003723 | 59 | 315 | 8.0 | 16.0 | 0.01 | 0.20 | 0.20 | 99 | 998.2 |
| 20260507003212 | 59 | 315 | 5.0 | 17.0 | 0.01 | 0.20 | 0.20 | 99 | 999.4 |
| 20260507002703 | 59 | 293 | 5.0 | 17.0 | 0.02 | 0.20 | 0.20 | 99 | 1000.2 |
| 20260507002152 | 58 | 135 | 7.0 | 15.0 | 0.02 | 0.20 | 0.20 | 99 | 1000.8 |
| 20260507001641 | 58 | 270 | 6.0 | 14.0 | 0.02 | 0.20 | 0.20 | 99 | 1001.1 |
| 20260507001147 | 58 | 248 | 4.0 | 11.0 | 0.02 | 0.20 | 0.20 | 99 | 1001.6 |
| 20260507000634 | 58 | 135 | 2.0 | 13.0 | 0.01 | 0.19 | 0.19 | 99 | 1002.7 |
| 20260507000123 | 58 | 338 | 4.0 | 13.0 | 0.01 | 0.19 | 0.19 | 99 | 1001.8 |
| 20260506235610 | 58 | 293 | 4.0 | 11.0 | 0.01 | 0.19 | 0.19 | 99 | 1002.9 |
| 20260506235100 | 58 | 338 | 3.0 | 16.0 | 0.02 | 0.19 | 0.19 | 99 | 1002.8 |
| 20260506234546 | 58 | 315 | 2.0 | 16.0 | 0.02 | 0.19 | 0.19 | 99 | 1003.9 |
| 20260506233524 | 58 | 315 | 4.0 | 11.0 | 0.02 | 0.19 | 0.19 | 99 | 1004.6 |
| 20260506233014 | 58 | 338 | 4.0 | 11.0 | 0.02 | 0.19 | 0.19 | 99 | 1004.3 |
| 20260506232501 | 58 | 225 | 2.0 | 14.0 | 0.01 | 0.18 | 0.18 | 99 | 1003.3 |
| 20260506231950 | 58 | 248 | 4.0 | 14.0 | 0.02 | 0.18 | 0.18 | 99 | 1003.4 |
| 20260506230930 | 58 | 338 | 7.0 | 15.0 | 0.02 | 0.18 | 0.18 | 99 | 1002.6 |
| 20260506230420 | 57 | 225 | 5.0 | 11.0 | 0.02 | 0.18 | 0.18 | 99 | 1003.0 |
| 20260506225400 | 57 | 293 | 2.0 | 13.0 | 0.02 | 0.17 | 0.17 | 99 | 1003.0 |
| 20260506224849 | 57 | 45 | 6.0 | 13.0 | 0.02 | 0.17 | 0.17 | 99 | 1003.6 |
| 20260506223844 | 57 | 23 | 4.0 | 17.0 | 0.02 | 0.17 | 0.17 | 99 | 1004.2 |
| 20260506223332 | 57 | 0 | 4.0 | 17.0 | 0.02 | 0.17 | 0.17 | 99 | 1004.3 |
| 20260506222820 | 57 | 338 | 3.0 | 11.0 | 0.02 | 0.17 | 0.17 | 99 | 1003.6 |
| 20260506221756 | 57 | 0 | 4.0 | 14.0 | 0.01 | 0.15 | 0.15 | 99 | 1004.4 |
| 20260506221245 | 57 | 293 | 7.0 | 11.0 | 0.01 | 0.15 | 0.15 | 99 | 1003.8 |
| 20260506220732 | 58 | 338 | 5.0 | 11.0 | 0.01 | 0.15 | 0.15 | 99 | 1004.7 |
| 20260506220224 | 58 | 338 | 2.0 | 11.0 | 0.01 | 0.15 | 0.15 | 99 | 1005.2 |
| 20260506215709 | 58 | 0 | 5.0 | 11.0 | 0.01 | 0.15 | 0.15 | 99 | 1004.2 |
| 20260506215158 | 58 | 293 | 4.0 | 11.0 | 0.00 | 0.14 | 0.14 | 99 | 1004.0 |
| 20260506214649 | 59 | 23 | 1.0 | 8.0 | 0.00 | 0.14 | 0.14 | 99 | 1004.2 |
| 20260506213628 | 59 | 270 | 3.0 | 13.0 | 0.01 | 0.14 | 0.14 | 99 | 1004.1 |
| 20260506213118 | 58 | 180 | 4.0 | 17.0 | 0.01 | 0.14 | 0.14 | 99 | 1004.3 |
| 20260506212609 | 58 | 225 | 7.0 | 17.0 | 0.01 | 0.14 | 0.14 | 99 | 1004.3 |
| 20260506212058 | 59 | 270 | 3.0 | 14.0 | 0.01 | 0.14 | 0.14 | 99 | 1003.9 |
| 20260506211548 | 59 | 225 | 4.0 | 15.0 | 0.01 | 0.14 | 0.14 | 99 | 1004.1 |
| 20260506211037 | 59 | 203 | 5.0 | 17.0 | 0.01 | 0.14 | 0.14 | 99 | 1003.9 |
| 20260506210542 | 60 | 248 | 9.0 | 17.0 | 0.01 | 0.14 | 0.14 | 99 | 1004.6 |
| 20260506205515 | 61 | 225 | 6.0 | 17.0 | 0.01 | 0.14 | 0.14 | 98 | 1005.1 |
| 20260506205006 | 61 | 158 | 3.0 | 21.0 | 0.01 | 0.14 | 0.14 | 99 | 1004.9 |
| 20260506204453 | 61 | 203 | 7.0 | 21.0 | 0.01 | 0.14 | 0.14 | 99 | 1005.1 |
| 20260506203943 | 61 | 0 | 9.0 | 21.0 | 0.01 | 0.13 | 0.14 | 99 | 1005.0 |
| 20260506203430 | 60 | 270 | 6.0 | 21.0 | 0.01 | 0.13 | 0.13 | 98 | 1004.9 |
| 20260506202920 | 60 | 248 | 4.0 | 21.0 | 0.01 | 0.13 | 0.13 | 98 | 1005.5 |
| 20260506202408 | 60 | 270 | 6.0 | 15.0 | 0.01 | 0.13 | 0.13 | 98 | 1006.0 |
| 20260506201857 | 60 | 270 | 4.0 | 17.0 | 0.01 | 0.13 | 0.13 | 98 | 1005.9 |
| 20260506201347 | 60 | 270 | 10.0 | 17.0 | 0.01 | 0.13 | 0.13 | 98 | 1005.6 |
| 20260506200837 | 60 | 203 | 9.0 | 16.0 | 0.01 | 0.13 | 0.13 | 97 | 1005.7 |
| 20260506200326 | 60 | 293 | 6.0 | 18.0 | 0.01 | 0.13 | 0.13 | 97 | 1005.7 |
| 20260506195816 | 61 | 248 | 11.0 | 21.0 | 0.01 | 0.13 | 0.13 | 97 | 1005.5 |
| 20260506195306 | 61 | 225 | 10.0 | 21.0 | 0.01 | 0.13 | 0.13 | 97 | 1005.5 |
| 20260506194756 | 60 | 225 | 8.0 | 21.0 | 0.01 | 0.13 | 0.13 | 97 | 1005.8 |
| 20260506194246 | 60 | 248 | 7.0 | 18.0 | 0.00 | 0.12 | 0.12 | 96 | 1006.1 |
| 20260506193239 | 60 | 203 | 11.0 | 20.0 | 0.00 | 0.12 | 0.12 | 96 | 1006.0 |
| 20260506192727 | 60 | 203 | 11.0 | 20.0 | 0.01 | 0.12 | 0.12 | 96 | 1006.0 |
| 20260506192214 | 60 | 225 | 11.0 | 20.0 | 0.01 | 0.12 | 0.12 | 96 | 1005.6 |
| 20260506191703 | 61 | 203 | 11.0 | 18.0 | 0.01 | 0.12 | 0.12 | 96 | 1005.8 |
| 20260506191150 | 61 | 248 | 13.0 | 18.0 | 0.01 | 0.12 | 0.12 | 95 | 1005.8 |
| 20260506190640 | 62 | 203 | 8.0 | 20.0 | 0.01 | 0.12 | 0.12 | 95 | 1005.9 |
| 20260506190127 | 62 | 248 | 12.0 | 20.0 | 0.02 | 0.12 | 0.12 | 95 | 1005.9 |
| 20260506185615 | 62 | 203 | 13.0 | 23.0 | 0.02 | 0.12 | 0.12 | 94 | 1005.8 |
| 20260506185105 | 62 | 180 | 11.0 | 23.0 | 0.02 | 0.12 | 0.12 | 94 | 1005.7 |
| 20260506184556 | 62 | 180 | 13.0 | 21.0 | 0.02 | 0.12 | 0.12 | 94 | 1006.0 |
| 20260506183535 | 62 | 248 | 12.0 | 18.0 | 0.04 | 0.12 | 0.12 | 93 | 1006.2 |
| 20260506180943 | 62 | 248 | 9.0 | 18.0 | 0.04 | 0.11 | 0.11 | 91 | 1007.7 |
| 20260506180449 | 62 | 203 | 10.0 | 17.0 | 0.05 | 0.11 | 0.11 | 90 | 1007.8 |
| 20260506175935 | 62 | 180 | 6.0 | 17.0 | 0.04 | 0.09 | 0.09 | 90 | 1008.3 |
| 20260506175425 | 62 | 203 | 8.0 | 22.0 | 0.05 | 0.09 | 0.09 | 90 | 1008.2 |
| 20260506174912 | 62 | 203 | 11.0 | 22.0 | 0.05 | 0.09 | 0.09 | 89 | 1008.0 |
| 20260506174402 | 62 | 203 | 10.0 | 20.0 | 0.06 | 0.09 | 0.09 | 89 | 1008.1 |
| 20260506173848 | 62 | 203 | 13.0 | 20.0 | 0.06 | 0.08 | 0.08 | 89 | 1008.5 |
| 20260506173335 | 60 | 225 | 9.0 | 18.0 | 0.06 | 0.08 | 0.08 | 91 | 1008.6 |
| 20260506172313 | 59 | 135 | 8.0 | 16.0 | 0.05 | 0.07 | 0.07 | 94 | 1009.0 |
| 20260506171803 | 60 | 158 | 7.0 | 17.0 | 0.05 | 0.07 | 0.07 | 95 | 1009.3 |
| 20260506171253 | 60 | 158 | 8.0 | 17.0 | 0.05 | 0.07 | 0.07 | 95 | 1009.2 |
| 20260506170743 | 60 | 203 | 11.0 | 21.0 | 0.05 | 0.07 | 0.07 | 95 | 1009.5 |
| 20260506170232 | 60 | 158 | 8.0 | 21.0 | 0.04 | 0.06 | 0.06 | 95 | 1009.8 |
| 20260506165723 | 59 | 225 | 8.0 | 16.0 | 0.04 | 0.06 | 0.06 | 95 | 1009.8 |
| 20260506165213 | 59 | 203 | 7.0 | 18.0 | 0.02 | 0.05 | 0.05 | 94 | 1009.9 |
| 20260506164702 | 59 | 203 | 10.0 | 18.0 | 0.02 | 0.04 | 0.04 | 94 | 1010.1 |
| 20260506164152 | 60 | 203 | 11.0 | 20.0 | 0.02 | 0.04 | 0.04 | 92 | 1009.8 |
| 20260506163642 | 61 | 203 | 12.0 | 20.0 | 0.01 | 0.02 | 0.02 | 86 | 1010.1 |
| 20260506163146 | 61 | 180 | 10.0 | 18.0 | 0.01 | 0.02 | 0.02 | 86 | 1009.8 |
| 20260506162634 | 61 | 203 | 11.0 | 18.0 | 0.01 | 0.02 | 0.02 | 87 | 1010.1 |
| 20260506162123 | 60 | 225 | 12.0 | 18.0 | 0.01 | 0.02 | 0.02 | 89 | 1010.4 |
| 20260506161611 | 61 | 203 | 7.0 | 18.0 | 0.01 | 0.02 | 0.02 | 89 | 1009.9 |
| 20260506161057 | 62 | 203 | 8.0 | 17.0 | 0.01 | 0.02 | 0.02 | 87 | 1010.1 |
| 20260506160033 | 62 | 225 | 8.0 | 21.0 | 0.02 | 0.02 | 0.02 | 85 | 1010.2 |